Weather History for Newport News, VA

Change the Weather History Date:

Friday, March 29, 2013

  Actual Average Record
Temperature  
Mean Temperature 47 °F -  
Max Temperature 60 °F 65 °F 86 °F (1998)
Min Temperature 37 °F 43 °F 26 °F (2011)
Degree Days  
Heating Degree Days 18    
Moisture  
Dew Point 27 °F    
Average Humidity 49    
Maximum Humidity 67    
Minimum Humidity 29    
Precipitation  
Precipitation 0.00 in - - ()
Sea Level Pressure  
Sea Level Pressure 30.23 in    
Wind  
Wind Speed 5 mph (NW)    
Max Wind Speed 12 mph    
Max Gust Speed 17 mph    
Visibility 10 miles    
Events      
Averages and records for this station are not official NWS values.
T = Trace of Precipitation, MM = Missing Value Source: NWS Daily Summary

Daily Weather History Graph

Daily Weather History Graph

Search for Another Location

Airport:

Trip Planner

Search our weather history database for the weather conditions in past years. The results will help you decide how hot, cold, wet, or windy it might be!

Date:

Astronomy

Mar. 29, 2013 Rise Set
Actual Time 6:55 AM EDT 7:26 PM EDT
Civil Twilight 6:29 AM EDT 7:52 PM EDT
Nautical Twilight 5:58 AM EDT 8:22 PM EDT
Astronomical Twilight 5:27 AM EDT 8:54 PM EDT
Moon 10:18 PM EDT (3/29) 8:07 AM EDT (3/29)
Length of Visible Light 13h 22m
Length of Day
12h 30m
Waning Gibbous, 93% of the Moon is Illuminated
Mar 29
Waning Gibbous
Apr 3
Last Quarter
Apr 10
New
Apr 18
First Quarter
Apr 25
Full

Hourly Weather History & Observations

Time (EDT) Temp. Windchill Dew Point Humidity Pressure Visibility Wind Dir Wind Speed Gust Speed Precip Events Conditions
12:54 AM 37.0 °F - 27.0 °F 67% 30.25 in 10.0 mi Calm Calm - N/A   Clear
1:54 AM 41.0 °F 38.0 °F 26.1 °F 55% 30.25 in 10.0 mi NW 4.6 mph - N/A   Clear
2:54 AM 42.1 °F 39.2 °F 25.0 °F 51% 30.25 in 10.0 mi WNW 4.6 mph - N/A   Clear
3:54 AM 39.9 °F 36.7 °F 26.1 °F 58% 30.25 in 10.0 mi WNW 4.6 mph - N/A   Clear
4:54 AM 39.9 °F 36.7 °F 25.0 °F 55% 30.24 in 10.0 mi NW 4.6 mph - N/A   Mostly Cloudy
5:54 AM 39.0 °F - 26.1 °F 60% 30.25 in 10.0 mi North - - N/A   Mostly Cloudy
6:54 AM 39.0 °F - 27.0 °F 62% 30.26 in 10.0 mi North - - N/A   Overcast
7:54 AM 42.1 °F 38.4 °F 28.0 °F 58% 30.28 in 10.0 mi WNW 5.8 mph - N/A   Overcast
8:54 AM 46.0 °F 42.5 °F 28.0 °F 50% 30.29 in 10.0 mi WNW 6.9 mph - N/A   Overcast
9:54 AM 48.9 °F - 26.1 °F 41% 30.28 in 10.0 mi NNW 6.9 mph - N/A   Mostly Cloudy
10:54 AM 50.0 °F - 26.1 °F 39% 30.28 in 10.0 mi NNW 11.5 mph - N/A   Overcast
11:54 AM 55.0 °F - 28.9 °F 37% 30.26 in 10.0 mi West 10.4 mph - N/A   Partly Cloudy
12:54 PM 55.9 °F - 27.0 °F 33% 30.23 in 10.0 mi NW 11.5 mph 17.3 mph N/A   Mostly Cloudy
2:54 PM 55.9 °F - 25.0 °F 30% 30.20 in 10.0 mi NW 9.2 mph - N/A   Overcast
3:54 PM 57.0 °F - 25.0 °F 29% 30.18 in 10.0 mi WNW 10.4 mph 16.1 mph N/A   Overcast
4:54 PM 57.0 °F - 26.1 °F 30% 30.18 in 10.0 mi West 9.2 mph - N/A   Overcast
5:54 PM 55.9 °F - 25.0 °F 30% 30.17 in 10.0 mi NNW 6.9 mph - N/A   Partly Cloudy
6:54 PM 55.0 °F - 25.0 °F 31% 30.18 in 10.0 mi NW 3.5 mph - N/A   Partly Cloudy
7:54 PM 48.0 °F - 30.0 °F 50% 30.19 in 10.0 mi Calm Calm - N/A   Partly Cloudy
8:54 PM 41.0 °F - 30.9 °F 67% 30.20 in 10.0 mi Calm Calm - N/A   Clear
9:54 PM 41.0 °F - 30.9 °F 67% 30.22 in 10.0 mi Calm Calm - N/A   Partly Cloudy
10:54 PM 43.0 °F - 30.9 °F 62% 30.22 in 10.0 mi Calm Calm - N/A   Overcast
11:54 PM 42.1 °F - 30.9 °F 65% 30.22 in 10.0 mi Calm Calm - N/A   Mostly Cloudy